[[{"header":{"parameterUnit":"m.s-1","parameterCategory":1,"la1":30.2991,"la2":30.254,"lo1":-89.0895,"lo2":-89.0444,"dy":0.0017,"dx":0.0017,"nx":28,"ny":28,"refTime":"2026-02-24T09:00:00:Z","depth":0,"parameterNumber":2,"parameterNumberName":"U-component_of_WINDS"},"data":[0,0,0,0,0,0,0,0,0,0,0,0,0,0,0,0,0,0,0,0,0,0,0,0,0,0,0,0,0,0,0,0,0,0,0,0,0,0,0,0,0,0,0,0,0,0,0,0,0,0,0,0,0,0,0,0,0,0,0.7696,0.7696,0,0.7715,0.7715,0.7716,0.7704,0.7703,0.7702,0.7702,0.7722,0.7723,0.7725,0,0,0,0,0,0,0,0,0,0,0,0,0,0.7648,0.7648,0.7696,0.7696,0.7696,0.7715,0.7715,0.7716,0.7704,0.7703,0.7702,0.7702,0.7722,0.7723,0.7725,0,0,0,0,0,0,0,0,0,0,0,0,0,0.7668,0.7649,0.7695,0.7692,0.7692,0.7715,0.7715,0.7716,0.7704,0.7703,0.7702,0.7701,0.7722,0.7723,0.7725,0.7752,0,0,0.773,0.773,0,0,0,0,0,0,0,0,0.7667,0.767,0.7693,0.7693,0.7693,0.7706,0.7706,0.7728,0.7704,0.7699,0.7702,0.7701,0.7718,0.772,0.7725,0.7753,0.7754,0.773,0.7731,0.7732,0.7732,0,0,0,0,0,0,0,0.7665,0.7669,0.7703,0.7693,0.7693,0.769,0.7692,0.771,0.7713,0.77,0.7699,0.7701,0.7718,0.7724,0.7726,0.7754,0.773,0.7731,0.7732,0.7733,0.7805,0.7806,0,0,0,0,0,0,0.7664,0.7668,0.7703,0.7704,0.7677,0.7691,0.7694,0.7703,0.7713,0.7714,0.7702,0.7701,0.7721,0.7724,0.7726,0.7759,0.7732,0.7733,0.7734,0.7804,0.7806,0.7807,0,0,0,0,0,0,0.7663,0.7667,0.7702,0.7686,0.769,0.7693,0.7703,0.7703,0.771,0.7715,0.7715,0.7708,0.7721,0.7724,0.7746,0.7759,0.7734,0.7735,0.7803,0.7805,0.7806,0.7824,0,0,0,0,0,0,0.7662,0.7667,0.7677,0.7686,0.7691,0.7721,0.7704,0.7704,0.7712,0.7711,0.772,0.7721,0.772,0.7743,0.7747,0.7761,0.7737,0.7802,0.7804,0.7806,0.7822,0.7826,0.7829,0,0,0,0,0,0.766,0.7682,0.7678,0.7682,0.7704,0.7722,0.7724,0.7723,0.7713,0.7724,0.7727,0.7721,0.7757,0.7746,0.775,0.7765,0.7801,0.7803,0.7806,0.7821,0.7825,0.7829,0,0,0,0,0,0,0.7675,0.7683,0.7679,0.7704,0.7712,0.772,0.7733,0.7728,0.7739,0.7737,0.7736,0.7738,0.776,0.7765,0.7752,0.7791,0.7778,0.7781,0.7788,0.7792,0.7795,0.7794,0.7738,0,0,0,0,0,0.7681,0.7695,0.7701,0.7723,0.7727,0.7729,0.7737,0.7735,0.7744,0.7748,0.7753,0.7761,0.7775,0.7784,0.7796,0.7823,0.7825,0.7835,0.7838,0.7841,0.7844,0.7858,0.7863,0.7814,0.7814,0.7814,0,0,0.7694,0.77,0.7709,0.7726,0.7732,0.7747,0.7732,0.7748,0.7759,0.775,0.7771,0.7775,0.7785,0.7809,0.782,0.7813,0.7858,0.7844,0.7846,0.7847,0.7861,0.7866,0.787,0.7815,0.7815,0.7815,0,0,0.7724,0.773,0.7749,0.7756,0.7765,0.7767,0.7771,0.778,0.7782,0.7803,0.7796,0.7809,0.7832,0.784,0.7846,0.788,0.7874,0.7884,0.7902,0.7916,0.792,0.7923,0.7935,0.794,0.7887,0.7887,0.7887,0,0.7739,0.7761,0.7759,0.7776,0.7783,0.7776,0.7794,0.7801,0.7815,0.782,0.7812,0.7841,0.7847,0.7873,0.7881,0.7887,0.7892,0.7883,0.7919,0.7923,0.7926,0.7937,0.7942,0.7888,0.7888,0.7888,0.7888,0,0.7778,0.7793,0.7807,0.782,0.7829,0.7847,0.7848,0.7858,0.7855,0.7858,0.7879,0.7886,0.79,0.7906,0.7904,0.7932,0.7927,0.7919,0.7906,0.7932,0.7942,0.7947,0.789,0.7889,0.7889,0.7889,0,0,0.7818,0.783,0.7835,0.7841,0.7852,0.7864,0.7881,0.7894,0.7903,0.7912,0.7927,0.7947,0.794,0.7947,0.7946,0.7959,0.7985,0.7949,0.795,0.7956,0.8016,0.8021,0.8027,0.7981,0.7982,0.7983,0.8015,0,0.7849,0.7879,0.7878,0.7907,0.7921,0.7914,0.7929,0.7937,0.794,0.7952,0.7955,0.7969,0.7959,0.7963,0.7975,0.7979,0.7997,0.7977,0.7995,0.7995,0.7992,0.8032,0.8038,0.8068,0.8019,0.802,0.802,0,0.7889,0.79,0.793,0.7938,0.7944,0.7958,0.797,0.7982,0.7991,0.7993,0.8001,0.7998,0.8016,0.8002,0.8026,0.8012,0.802,0.8023,0.8024,0.8025,0.8009,0.8035,0.8078,0.8082,0.8027,0.8026,0.8026,0,0.7915,0.7937,0.7958,0.7963,0.7974,0.7984,0.7989,0.7997,0.8005,0.8016,0.8022,0.8035,0.8042,0.8052,0.8052,0.8042,0.8077,0.8063,0.8079,0.8079,0.8086,0.8086,0.8131,0.8091,0.8091,0.8091,0.8091,0,0.795,0.7968,0.797,0.7982,0.8003,0.8002,0.8022,0.8026,0.8034,0.8047,0.8042,0.8055,0.8055,0.8068,0.8068,0.8088,0.8092,0.8093,0.8093,0.8093,0.8093,0.8098,0.8096,0.8092,0.8092,0.8092,0.8092,0,0.7982,0.7984,0.8006,0.8014,0.8017,0.8031,0.8039,0.8051,0.8053,0.807,0.8074,0.8078,0.8093,0.8094,0.8112,0.8112,0.8137,0.8134,0.8133,0.8133,0.8148,0.8147,0.8198,0.8205,0.8161,0.8161,0.8162,0,0.8004,0.8017,0.8028,0.8036,0.8042,0.8056,0.8064,0.8064,0.8073,0.8085,0.8096,0.811,0.8122,0.8146,0.815,0.8164,0.8162,0.8179,0.8164,0.8164,0.8162,0.8161,0.8162,0.8182,0.8182,0.8183,0.8183,0,0.8042,0.8042,0.8055,0.8068,0.8078,0.8089,0.8098,0.8106,0.8107,0.8117,0.8132,0.8141,0.8159,0.8174,0.8187,0.8192,0.8188,0.8188,0.8192,0.8193,0.8191,0.8192,0.8141,0.8186,0.8186,0.8186,0.8186,0.8186,0.8069,0.8081,0.8091,0.8105,0.8112,0.8121,0.8133,0.8137,0.815,0.8164,0.8164,0.8181,0.819,0.8207,0.8213,0.8227,0.8221,0.8227,0.8229,0.823,0.8232,0.819,0.8229,0.8229,0.8229,0.8229,0.8229,0,0.8107,0.8113,0.8126,0.814,0.8151,0.8146,0.8156,0.8166,0.8181,0.819,0.8202,0.822,0.8234,0.824,0.8253,0.8263,0.8261,0.8267,0.8266,0.8267,0.8236,0.8231,0.8268,0.8268,0.8268,0.8268,0.8268,0.8268,0.8128,0.8148,0.815,0.8174,0.818,0.8196,0.8203,0.8211,0.8218,0.8239,0.825,0.8254,0.8262,0.8276,0.8289,0.8291,0.8296,0.8302,0.8303,0.8273,0.8269,0.8266,0.8261,0.8303,0.8303,0.8333,0.8333,0.8333]},{"header":{"parameterUnit":"m.s-1","parameterCategory":1,"la1":30.2991,"la2":30.254,"lo1":-89.0895,"lo2":-89.0444,"dy":0.0017,"dx":0.0017,"nx":28,"ny":28,"refTime":"2026-02-24T09:00:00:Z","depth":0,"parameterNumber":3,"parameterNumberName":"V-component_of_WINDS"},"data":[0,0,0,0,0,0,0,0,0,0,0,0,0,0,0,0,0,0,0,0,0,0,0,0,0,0,0,0,0,0,0,0,0,0,0,0,0,0,0,0,0,0,0,0,0,0,0,0,0,0,0,0,0,0,0,0,0,0,5.3945,5.3946,0,5.4079,5.408,5.4082,5.4069,5.4067,5.4065,5.4063,5.4199,5.4204,5.421,0,0,0,0,0,0,0,0,0,0,0,0,0,5.3677,5.3682,5.3945,5.3946,5.3948,5.4078,5.408,5.4082,5.407,5.4067,5.4065,5.4062,5.4197,5.4204,5.421,0,0,0,0,0,0,0,0,0,0,0,0,0,5.38,5.3684,5.3944,5.3958,5.396,5.4078,5.408,5.4083,5.407,5.4067,5.4064,5.4061,5.4195,5.4203,5.4211,5.4324,0,0,5.4237,5.424,0,0,0,0,0,0,0,0,5.3793,5.381,5.3954,5.3957,5.396,5.4054,5.4036,5.4164,5.4071,5.4028,5.4063,5.406,5.4153,5.4165,5.4197,5.4331,5.4337,5.4237,5.4243,5.4246,5.4248,0,0,0,0,0,0,0,5.3785,5.3804,5.3998,5.3956,5.396,5.3956,5.3971,5.406,5.4106,5.4032,5.4031,5.4047,5.4154,5.4189,5.42,5.4339,5.4237,5.4245,5.425,5.4253,5.4574,5.4577,0,0,0,0,0,0,5.3773,5.3797,5.3993,5.4002,5.3867,5.3964,5.398,5.4027,5.4105,5.4114,5.405,5.4046,5.4176,5.419,5.4205,5.4344,5.4246,5.4254,5.4259,5.4571,5.4575,5.4579,0,0,0,0,0,0,5.3768,5.3791,5.3988,5.3899,5.3924,5.3972,5.4025,5.4031,5.4066,5.4119,5.4127,5.4077,5.4174,5.4193,5.4295,5.4348,5.4258,5.4265,5.4566,5.4572,5.4577,5.4622,0,0,0,0,0,0,5.376,5.3789,5.3833,5.3901,5.3929,5.4077,5.4028,5.4036,5.408,5.4077,5.4146,5.4155,5.4173,5.4283,5.4304,5.4358,5.4272,5.4562,5.4569,5.4575,5.4616,5.4628,5.4638,0,0,0,0,0,5.3751,5.3839,5.3835,5.3859,5.3985,5.408,5.4096,5.4116,5.4084,5.4129,5.4163,5.4153,5.4339,5.4293,5.4317,5.4374,5.4559,5.4567,5.4575,5.4611,5.4625,5.4638,0,0,0,0,0,0,5.3775,5.3848,5.3844,5.3958,5.4013,5.4077,5.4134,5.4131,5.4195,5.4189,5.421,5.4226,5.433,5.4362,5.431,5.4489,5.4444,5.4457,5.4464,5.4479,5.449,5.448,5.4278,0,0,0,0,0,5.3794,5.3866,5.3925,5.402,5.4048,5.4086,5.4128,5.4139,5.4196,5.422,5.4261,5.4317,5.4389,5.4435,5.4503,5.462,5.4636,5.4671,5.4682,5.4691,5.4702,5.4768,5.4785,5.4605,5.4605,5.4605,0,0,5.3834,5.3882,5.3926,5.4026,5.407,5.4144,5.4106,5.4185,5.424,5.4231,5.4331,5.4364,5.4428,5.4538,5.4589,5.4568,5.4756,5.4701,5.4708,5.4715,5.4778,5.4795,5.481,5.461,5.4609,5.4608,0,0,5.3943,5.3987,5.4071,5.4116,5.4183,5.4209,5.4229,5.4295,5.4316,5.4417,5.4413,5.4478,5.46,5.4646,5.4686,5.4814,5.4807,5.4836,5.4895,5.4959,5.4973,5.4986,5.5033,5.5049,5.4847,5.4847,5.4847,0,5.3984,5.4095,5.4114,5.4195,5.424,5.4236,5.4322,5.4364,5.445,5.4481,5.4457,5.4611,5.4653,5.4775,5.4807,5.4838,5.4863,5.4828,5.4969,5.4982,5.4994,5.504,5.5057,5.485,5.4849,5.4849,5.4849,0,5.4142,5.4219,5.4279,5.4363,5.4414,5.4497,5.4529,5.4578,5.4585,5.4612,5.4715,5.4767,5.4846,5.4876,5.4882,5.4999,5.4984,5.4964,5.4921,5.5014,5.5057,5.5075,5.4854,5.4853,5.4852,5.4851,0,0,5.4271,5.4366,5.4388,5.4427,5.4501,5.4561,5.4644,5.4722,5.4765,5.4824,5.4895,5.4998,5.4981,5.5026,5.5037,5.5093,5.5193,5.5066,5.5068,5.5089,5.5327,5.5343,5.5362,5.5189,5.5192,5.5195,5.5322,0,5.4389,5.4537,5.4557,5.4687,5.476,5.4757,5.483,5.4883,5.4911,5.4977,5.5008,5.5082,5.5052,5.508,5.5134,5.5169,5.5242,5.516,5.5255,5.5258,5.5241,5.5385,5.5401,5.5519,5.5339,5.5342,5.5344,0,5.4547,5.4612,5.475,5.4816,5.4847,5.4912,5.4986,5.5048,5.5109,5.5126,5.5177,5.5181,5.5267,5.522,5.5339,5.5283,5.5323,5.5346,5.5351,5.5362,5.5308,5.54,5.5557,5.5575,5.537,5.5368,5.5366,0,5.4629,5.4751,5.485,5.4883,5.4962,5.5008,5.5043,5.51,5.5147,5.5211,5.5242,5.5315,5.5356,5.5412,5.5437,5.54,5.5556,5.5509,5.5573,5.5572,5.5606,5.5604,5.5773,5.563,5.563,5.5629,5.5629,0,5.476,5.4845,5.4888,5.4949,5.5044,5.5067,5.516,5.5193,5.5245,5.5312,5.5314,5.5377,5.5406,5.5473,5.5493,5.559,5.5608,5.5624,5.5628,5.5625,5.5623,5.5652,5.5645,5.5634,5.5633,5.5632,5.5631,0,5.4868,5.4901,5.5008,5.5075,5.5093,5.5161,5.5217,5.5277,5.5304,5.539,5.5411,5.5455,5.5535,5.5565,5.5662,5.5675,5.5787,5.5784,5.5767,5.5769,5.5831,5.5825,5.6025,5.6053,5.5891,5.5892,5.5893,0,5.495,5.5015,5.5089,5.5135,5.5172,5.5245,5.5293,5.5317,5.5367,5.5442,5.5492,5.5572,5.5637,5.5765,5.5805,5.588,5.588,5.5945,5.5891,5.5886,5.5883,5.5879,5.5886,5.5955,5.5957,5.5958,5.5959,0,5.5092,5.5106,5.5174,5.525,5.5307,5.5367,5.5425,5.5462,5.5496,5.5551,5.5634,5.5684,5.5784,5.5864,5.5941,5.5976,5.5974,5.5976,5.5994,5.5992,5.598,5.5989,5.5796,5.5971,5.597,5.5969,5.5968,5.5968,5.5191,5.525,5.5311,5.5388,5.5435,5.549,5.5549,5.5585,5.5654,5.5738,5.5748,5.5837,5.5897,5.6,5.6039,5.6109,5.6092,5.6119,5.6126,5.6132,5.6138,5.5968,5.6123,5.6123,5.6122,5.6122,5.6122,0,5.5335,5.5375,5.5445,5.5528,5.5589,5.5581,5.5646,5.5697,5.5775,5.5832,5.5896,5.5991,5.6069,5.6116,5.6194,5.6241,5.6242,5.626,5.6258,5.6266,5.6148,5.6125,5.6258,5.6258,5.6258,5.6258,5.6258,5.6258,5.5417,5.5516,5.5537,5.566,5.5699,5.5786,5.5824,5.5875,5.592,5.6027,5.6091,5.6122,5.6175,5.6257,5.6328,5.6339,5.6369,5.6389,5.64,5.6289,5.6274,5.6261,5.6239,5.6395,5.6395,5.6513,5.6514,5.6515]}]]